* Astronomy

Members Login
Username 
 
Password 
    Remember Me  
Post Info TOPIC: Molniya-M Stage 3 RB Re-entry


L

Posts: 131433
Date:
RE: Molniya-M Stage 3 RB Re-entry
Permalink  
 


Update:
Predicted Decay Time    23rd November 2007 @ 14:12:00 GMT  ± 1 Hours
Predicted Decay Location    40.6° S, 40.8° E
Inclination    63°
Revolution Number    11390

__________________


L

Posts: 131433
Date:
Permalink  
 

A Molniya-M Stage 3 Rocket Body that was launched on the 2nd December 1992 from the Plesetsk Cosmodrome for the Molniya 3-43 Mission, is predicted to re-enter the earths atmosphere on the 22th November 2007 @ 17:21 GMT ± 48 hours

Sl6
Expand (70kb, 630 x 390)

Predicted Decay Location 3.9° N, 200.1° E
Revolution Number 11380
Period: 178.53
Inclination: 63.05°
Apogee; 8161
Perigee: 88


TLE Data
SL-6 R/B(2)
1 22258U 92085D 07323.87618170 .38436503 41815-5 77063-3 0 2362
2 22258 063.0330 348.6768 3359254 261.2879 060.1985 09.05601221113486
1 22258U 92085D 07323.65289954 .38376442 39027-5 61415-3 0 2352
2 22258 063.0284 348.9603 3448322 261.2739 059.1319 08.88304867113468
1 22258U 92085D 07323.53954691 .33845028 39749-5 61970-3 0 2348
2 22258 063.0469 349.1150 3488862 261.2118 058.5158 08.79693529113456
1 22258U 92085D 07323.50652905 .99999999 -29634-8 29180-2 0 2338
2 22258 063.0335 349.1541 3458973 261.7717 313.2455 08.84943496113449
1 22258U 92085D 07323.42718198 .35610388 37461-5 29180-2 0 2320
2 22258 063.0729 349.2522 3495134 261.1954 064.6942 08.72369907113447


__________________
Page 1 of 1  sorted by
 
Quick Reply

Please log in to post quick replies.



Create your own FREE Forum
Report Abuse
Powered by ActiveBoard